Vorticity
nan nan nan nan nan nan nan nan nan nan nan nan nan nan nan nan nan nan nan nan nan nan nan nan nan nan nan nan nan nan nan nan nan
nan 7 13 14 12 10 13 12 9 8 8 10 10 7 8 8 8 6 8 9 7 8 8 9 13 10 9 8 10 14 12 9 nan
nan 9 12 16 11 8 8 8 8 9 10 9 9 8 7 8 9 8 10 11 10 8 8 11 12 8 9 7 6 8 12 10 nan
nan 11 10 8 7 9 8 8 10 9 9 8 8 8 9 8 9 11 12 9 10 8 10 12 10 8 7 8 7 6 8 11 nan
nan 10 11 9 8 8 9 8 9 9 7 8 9 8 9 9 9 11 10 9 9 9 11 10 10 11 8 10 10 10 10 12 nan
nan 12 10 10 9 8 8 7 8 9 9 7 8 9 9 11 12 10 9 10 11 12 11 11 11 12 12 12 12 13 13 14 nan
nan 11 8 7 8 9 9 9 8 8 8 9 10 10 10 9 10 10 10 11 11 11 11 11 10 11 11 11 11 10 13 15 nan
nan 9 9 9 7 8 10 9 8 8 9 9 11 10 10 9 8 11 11 11 10 10 10 9 10 8 8 8 7 10 11 11 nan
nan 10 8 9 8 8 10 10 9 8 10 10 9 10 9 9 11 10 9 8 9 9 9 10 10 9 8 8 8 9 11 12 nan
nan 12 11 10 9 8 7 10 10 9 9 11 11 9 9 10 10 11 10 8 9 9 8 8 8 9 8 8 7 6 9 13 nan
nan 10 9 11 10 10 10 10 10 9 10 11 10 10 10 11 10 8 9 10 9 7 9 10 8 8 9 7 6 7 10 12 nan
nan 9 10 12 10 8 10 10 10 8 8 10 10 10 9 10 10 9 8 9 8 7 9 9 10 10 9 7 8 6 9 10 nan
nan 13 11 12 12 10 9 10 10 8 9 9 10 11 8 8 8 10 8 8 8 8 10 11 11 10 10 9 7 7 9 10 nan
nan 21 16 13 14 10 8 9 10 8 9 11 11 10 12 11 9 9 10 8 8 11 10 10 10 11 9 8 7 9 8 10 nan
nan 15 17 19 15 14 14 12 11 11 9 12 12 11 7 7 15 11 12 10 8 11 11 10 9 9 8 9 9 9 8 12 nan
nan 9 11 16 17 13 15 16 14 11 14 17 7 4 8 15 11 12 13 9 8 9 10 9 8 7 9 9 9 10 13 7 nan
nan 9 11 11 9 9 9 15 18 13 6 8 17 11 8 10 9 8 8 9 10 9 8 9 10 9 10 10 10 8 10 8 nan
nan 9 9 14 12 9 10 13 14 11 9 12 12 9 11 10 10 9 6 8 12 12 13 14 11 11 12 10 8 14 13 10 nan
nan 10 8 10 10 12 12 10 11 10 13 14 11 11 9 9 8 8 10 8 3 9 16 14 16 13 6 6 15 19 12 10 nan
nan nan nan nan nan nan nan nan nan nan nan nan nan nan nan nan nan nan nan nan nan nan nan nan nan nan nan nan nan nan nan nan nan
CAPE
0 2 138 95 337 1503 1406 1329 1091 894 491 301 420 183 17 0 0 46 194 119 21 30 280 324 473 265 209 179 215 423 347 137 268
0 41 4 539 1118 1703 1613 1553 1487 1265 826 607 399 318 92 19 26 284 426 341 145 111 224 50 282 163 67 118 193 205 261 231 466
0 110 1288 1827 1789 1725 1651 1557 1432 1257 1052 894 687 559 390 397 351 334 481 315 357 463 400 119 114 22 150 466 227 159 296 368 530
777 1086 1612 1787 1676 1736 1668 1579 1369 1415 1270 1145 965 822 726 734 709 620 393 0 12 179 457 825 562 0 81 554 410 230 489 324 740
1152 1316 1431 1764 1718 1637 1626 1442 1322 1370 1337 1173 1198 926 978 1027 982 986 477 36 3 642 949 1156 1126 905 479 803 523 530 670 479 979
826 1282 1116 1397 1833 1658 1589 1418 1227 1146 1067 1056 1155 1118 1294 1106 1186 1119 948 608 819 1229 1122 1340 1533 1289 1157 927 892 1090 1025 1305 1296
1123 1249 1217 1125 1300 1488 1577 1402 1263 1089 1029 1250 1169 1451 1345 1337 1218 1276 1208 1067 538 134 470 1009 598 380 38 10 4 28 105 633 781
1149 1211 1219 1201 1061 824 1247 1481 1376 1314 1266 1284 1431 1362 1465 1385 1249 1341 1256 649 255 197 157 93 23 0 0 0 0 0 0 5 46
1187 1184 1112 1188 1081 953 1061 1461 1475 1472 1392 1350 1450 1439 1493 1292 1409 1466 758 353 215 129 70 7 0 0 0 0 0 0 0 0 0
392 1184 973 1011 1006 1120 1212 1593 1454 1452 1654 1416 1676 1660 1478 1308 1500 962 609 423 120 79 76 2 0 0 0 0 0 0 0 0 0
975 1212 1134 1006 1142 1442 1469 1615 1467 1311 1867 1810 1796 1858 1639 1326 1018 754 529 229 113 79 17 22 0 0 0 0 0 0 0 0 0
1157 1202 1273 1267 1376 1541 1599 1647 1542 1486 2078 1755 1785 1905 1549 1233 961 827 508 348 260 63 39 0 0 0 0 0 0 0 0 0 0
1117 1433 1353 1452 1515 1664 1717 1767 1607 1825 2196 1925 1890 1832 1504 1254 1074 906 604 469 189 48 1 0 0 0 0 0 0 0 0 0 0
1469 1597 1412 1524 1657 1891 1872 1889 1848 2085 2254 2045 1931 1733 1505 1239 1160 855 623 263 21 14 0 0 0 0 0 0 0 0 0 0 0
2010 2107 2135 1454 1740 1922 2056 2003 2212 2401 2358 1903 1695 1164 982 780 656 469 142 20 1 0 0 0 0 0 0 0 0 0 0 0 0
2060 1926 2453 2510 2310 2433 2267 2288 2480 2476 1913 1397 1142 72 6 462 108 15 0 0 0 0 0 0 0 0 0 0 0 0 0 0 0
1951 1892 2124 2604 2673 2472 1855 1410 1623 1302 898 740 416 213 254 130 36 1 1 0 0 0 0 0 0 0 0 0 0 0 0 0 0
1486 1794 1761 1853 1762 1519 1296 861 878 959 1052 515 548 268 85 58 3 0 1 0 0 0 0 0 0 0 0 0 1 0 0 0 0
970 1159 467 566 783 1137 1257 1154 807 585 521 644 457 218 141 19 1 1 0 0 0 0 0 0 0 0 0 0 0 0 0 0 0
5 44 47 46 14 21 466 1360 1238 699 573 496 317 208 12 1 1 1 0 0 0 0 0 0 0 0 0 0 0 0 0 0 0